This is the latest recevied weather packets stored in our database for station/object W7BTL-13. If no packets are shown the sender has not sent any weather packets the latest 10 day(s).
| Time | Temp. | Humidity | Pressure | Rain* | Wind** | Luminosity | Snow |
|---|---|---|---|---|---|---|---|
| 1788564602 | 30° C | 39% | 1013.2 hPa | - | - | - | - |
| 1788564302 | 30° C | 39% | 1013.2 hPa | - | - | - | - |
| 1788564002 | 30° C | 37% | 1013.2 hPa | - | - | - | - |
| 1788563702 | 30° C | 40% | 1013.2 hPa | - | - | - | - |
| 1788563402 | 30.56° C | 39% | 1013.2 hPa | - | - | - | - |
| 1788563102 | 30.56° C | 37% | 1013.2 hPa | - | - | - | - |
| 1788562802 | 30.56° C | 40% | 1013.2 hPa | - | - | - | - |
| 1788562502 | 31.11° C | 39% | 1013.2 hPa | - | - | - | - |
| 1788562202 | 31.11° C | 37% | 1013.2 hPa | - | - | - | - |
| 1788561902 | 30.56° C | 37% | 1013.2 hPa | - | - | - | - |
| 1788561602 | 30° C | 39% | 1013.2 hPa | - | - | - | - |
| 1788561302 | 30.56° C | 37% | 1013.2 hPa | - | - | - | - |
| 1788561004 | 30.56° C | 39% | 1013.2 hPa | - | - | - | - |
| 1788560702 | 30° C | 41% | 1013.2 hPa | - | - | - | - |
| 1788560402 | 31.11° C | 39% | 1013.2 hPa | - | - | - | - |
| 1788560102 | 30.56° C | 40% | 1013.2 hPa | - | - | - | - |
| 1788559802 | 30.56° C | 39% | 1013.2 hPa | - | - | - | - |
| 1788559502 | 30° C | 41% | 1013.2 hPa | - | - | - | - |
| 1788559202 | 30° C | 40% | 1013.2 hPa | - | - | - | - |
| 1788558902 | 30.56° C | 36% | 1013.2 hPa | - | - | - | - |
| 1788558603 | 30.56° C | 39% | 1013.2 hPa | - | - | - | - |
| 1788558602 | 30.56° C | 39% | 1013.2 hPa | - | - | - | - |
| 1788558302 | 30.56° C | 39% | 1013.2 hPa | - | - | - | - |
| 1788558002 | 30.56° C | 41% | 1013.2 hPa | - | - | - | - |
| 1788557702 | 31.11° C | 39% | 1013.2 hPa | - | - | - | - |
* Rain since midnight (hover to see other rain measurements)
** Current wind speed in m/s (hover to see current wind gust speed)